Wetterdaten: Mittwoch, 23.03.2016
Datum Zeit Auen-Temp. Temp gefhlt Luftfeuchte Luftdruck Regen Wind Richtung Richtung Sonnenschein Taupunkt Windben
23.03.2016 00:00 1,4 C 1,1 C 74 % 1008,4 hPa 0,0 mm 0,0 km/h (0 Bft) N-NO 22 0 min -2,7 C 0,0 km/h (0 Bft)
23.03.2016 00:05 1,3 C 1,0 C 74 % 1008,4 hPa 0,0 mm 0,0 km/h (0 Bft) O-NO 67 0 min -2,8 C 0,0 km/h (0 Bft)
23.03.2016 00:10 1,2 C 0,9 C 74 % 1008,2 hPa 0,0 mm 0,0 km/h (0 Bft) O-NO 67 0 min -2,9 C 0,0 km/h (0 Bft)
23.03.2016 00:15 1,3 C 0,9 C 75 % 1008,2 hPa 0,0 mm 0,0 km/h (0 Bft) O-NO 67 0 min -2,6 C 0,0 km/h (0 Bft)
23.03.2016 00:20 1,4 C 1,0 C 75 % 1008,2 hPa 0,0 mm 0,0 km/h (0 Bft) NO 45 0 min -2,5 C 0,0 km/h (0 Bft)
23.03.2016 00:25 1,4 C 1,1 C 74 % 1008,2 hPa 0,0 mm 0,0 km/h (0 Bft) SO 135 0 min -2,7 C 0,0 km/h (0 Bft)
23.03.2016 00:30 1,5 C 1,2 C 74 % 1007,9 hPa 0,0 mm 0,0 km/h (0 Bft) NO 45 0 min -2,6 C 0,0 km/h (0 Bft)
23.03.2016 00:35 1,6 C 1,2 C 74 % 1007,9 hPa 0,0 mm 0,0 km/h (0 Bft) O-NO 67 0 min -2,5 C 0,0 km/h (0 Bft)
23.03.2016 00:40 1,5 C 1,2 C 74 % 1007,9 hPa 0,0 mm 0,0 km/h (0 Bft) SO 135 0 min -2,6 C 0,0 km/h (0 Bft)
23.03.2016 00:43 1,4 C 1,0 C 74 % 1007,9 hPa 0,0 mm 0,0 km/h (0 Bft) O-NO 67 0 min -2,7 C 0,0 km/h (0 Bft)
23.03.2016 00:44 1,4 C 1,0 C 74 % 1007,9 hPa 0,0 mm 0,0 km/h (0 Bft) O-NO 67 0 min -2,7 C 0,0 km/h (0 Bft)
23.03.2016 00:50 1,4 C 1,0 C 74 % 1007,8 hPa 0,0 mm 0,0 km/h (0 Bft) SO 135 0 min -2,7 C 0,0 km/h (0 Bft)
23.03.2016 00:55 1,5 C 1,1 C 74 % 1007,8 hPa 0,0 mm 0,0 km/h (0 Bft) SO 135 0 min -2,6 C 0,0 km/h (0 Bft)
23.03.2016 01:00 1,2 C 0,9 C 74 % 1007,8 hPa 0,0 mm 0,0 km/h (0 Bft) N-NO 22 0 min -2,9 C 0,0 km/h (0 Bft)
23.03.2016 01:05 1,0 C 0,8 C 74 % 1007,8 hPa 0,0 mm 0,0 km/h (0 Bft) O-SO 112 0 min -3,1 C 0,0 km/h (0 Bft)
23.03.2016 01:10 1,0 C 0,7 C 74 % 1007,5 hPa 0,0 mm 0,0 km/h (0 Bft) N-NO 22 0 min -3,1 C 0,0 km/h (0 Bft)
23.03.2016 01:15 0,8 C 0,6 C 75 % 1007,5 hPa 0,0 mm 0,0 km/h (0 Bft) O-NO 67 0 min -3,1 C 0,0 km/h (0 Bft)
23.03.2016 01:20 0,7 C 0,5 C 75 % 1007,5 hPa 0,0 mm 0,0 km/h (0 Bft) O 90 0 min -3,2 C 0,0 km/h (0 Bft)
23.03.2016 01:25 0,8 C 0,5 C 75 % 1007,5 hPa 0,0 mm 0,0 km/h (0 Bft) N 360 0 min -3,1 C 0,0 km/h (0 Bft)
23.03.2016 01:30 0,7 C 0,4 C 75 % 1007,4 hPa 0,0 mm 0,0 km/h (0 Bft) NO 45 0 min -3,2 C 0,0 km/h (0 Bft)
23.03.2016 01:35 0,7 C 0,4 C 76 % 1007,4 hPa 0,0 mm 0,0 km/h (0 Bft) NO 45 0 min -3,0 C 0,0 km/h (0 Bft)
23.03.2016 01:40 0,7 C 0,3 C 76 % 1007,4 hPa 0,0 mm 0,0 km/h (0 Bft) O-NO 67 0 min -3,0 C 0,0 km/h (0 Bft)
23.03.2016 01:45 0,7 C 0,3 C 77 % 1007,4 hPa 0,0 mm 0,0 km/h (0 Bft) O 90 0 min -2,9 C 0,0 km/h (0 Bft)
23.03.2016 01:50 0,7 C 0,5 C 76 % 1007,4 hPa 0,0 mm 0,0 km/h (0 Bft) O-SO 112 0 min -3,0 C 0,0 km/h (0 Bft)
23.03.2016 01:55 0,7 C 0,4 C 76 % 1007,4 hPa 0,0 mm 0,0 km/h (0 Bft) O-NO 67 0 min -3,0 C 0,0 km/h (0 Bft)
23.03.2016 02:00 0,7 C 0,4 C 76 % 1007,4 hPa 0,0 mm 0,0 km/h (0 Bft) N-NO 22 0 min -3,0 C 0,0 km/h (0 Bft)
23.03.2016 02:05 0,6 C 0,3 C 76 % 1007,4 hPa 0,0 mm 0,0 km/h (0 Bft) W 270 0 min -3,1 C 0,0 km/h (0 Bft)
23.03.2016 02:10 0,6 C 0,3 C 77 % 1007,1 hPa 0,0 mm 0,0 km/h (0 Bft) W-SW 247 0 min -3,0 C 0,0 km/h (0 Bft)
23.03.2016 02:15 0,7 C 0,3 C 77 % 1007,1 hPa 0,0 mm 0,0 km/h (0 Bft) O 90 0 min -2,9 C 0,0 km/h (0 Bft)
23.03.2016 02:20 0,7 C 0,3 C 77 % 1007,1 hPa 0,0 mm 0,0 km/h (0 Bft) SO 135 0 min -2,9 C 0,0 km/h (0 Bft)
23.03.2016 02:25 0,8 C 0,4 C 77 % 1007,1 hPa 0,0 mm 0,0 km/h (0 Bft) O-NO 67 0 min -2,8 C 0,0 km/h (0 Bft)
23.03.2016 02:30 0,8 C 0,4 C 77 % 1007,0 hPa 0,0 mm 0,0 km/h (0 Bft) O-NO 67 0 min -2,8 C 0,0 km/h (0 Bft)
23.03.2016 02:35 0,5 C 0,1 C 77 % 1007,0 hPa 0,0 mm 0,0 km/h (0 Bft) S-SO 157 0 min -3,1 C 0,0 km/h (0 Bft)
23.03.2016 02:40 0,3 C 0,0 C 77 % 1007,0 hPa 0,0 mm 0,0 km/h (0 Bft) NO 45 0 min -3,2 C 0,0 km/h (0 Bft)
23.03.2016 02:45 0,2 C -0,1 C 77 % 1007,0 hPa 0,0 mm 0,0 km/h (0 Bft) NO 45 0 min -3,3 C 0,0 km/h (0 Bft)
23.03.2016 02:50 0,2 C -0,1 C 78 % 1007,0 hPa 0,0 mm 0,0 km/h (0 Bft) NO 45 0 min -3,2 C 0,0 km/h (0 Bft)
23.03.2016 02:55 0,3 C -0,1 C 78 % 1007,0 hPa 0,0 mm 0,0 km/h (0 Bft) NO 45 0 min -3,1 C 0,0 km/h (0 Bft)
23.03.2016 03:00 0,3 C -0,1 C 78 % 1007,0 hPa 0,0 mm 0,0 km/h (0 Bft) NO 45 0 min -3,1 C 0,0 km/h (0 Bft)
23.03.2016 03:05 0,2 C -0,1 C 78 % 1007,0 hPa 0,0 mm 0,0 km/h (0 Bft) N-NO 22 0 min -3,2 C 0,0 km/h (0 Bft)
23.03.2016 03:10 0,1 C -0,2 C 78 % 1006,8 hPa 0,0 mm 0,0 km/h (0 Bft) S 180 0 min -3,3 C 0,0 km/h (0 Bft)
23.03.2016 03:15 0,3 C -0,1 C 78 % 1006,8 hPa 0,0 mm 0,0 km/h (0 Bft) S-SO 157 0 min -3,1 C 0,0 km/h (0 Bft)
23.03.2016 03:20 0,4 C 0,0 C 79 % 1006,8 hPa 0,0 mm 0,0 km/h (0 Bft) N-NO 22 0 min -2,8 C 0,0 km/h (0 Bft)
23.03.2016 03:25 0,3 C -0,1 C 78 % 1006,8 hPa 0,0 mm 0,0 km/h (0 Bft) W 270 0 min -3,1 C 0,0 km/h (0 Bft)
23.03.2016 03:30 0,3 C -0,1 C 78 % 1006,6 hPa 0,0 mm 0,0 km/h (0 Bft) W 270 0 min -3,1 C 0,0 km/h (0 Bft)
23.03.2016 03:35 0,4 C 0,1 C 77 % 1006,6 hPa 0,0 mm 0,0 km/h (0 Bft) O-SO 112 0 min -3,1 C 0,0 km/h (0 Bft)
23.03.2016 03:40 0,4 C 0,1 C 77 % 1006,6 hPa 0,0 mm 0,0 km/h (0 Bft) O-NO 67 0 min -3,1 C 0,0 km/h (0 Bft)
23.03.2016 03:43 0,4 C 0,1 C 79 % 1006,6 hPa 0,0 mm 0,0 km/h (0 Bft) S-SO 157 0 min -2,8 C 0,0 km/h (0 Bft)
23.03.2016 03:45 0,4 C 0,1 C 79 % 1006,6 hPa 0,0 mm 0,0 km/h (0 Bft) S-SO 157 0 min -2,8 C 0,0 km/h (0 Bft)
23.03.2016 03:50 0,4 C 0,1 C 79 % 1006,5 hPa 0,0 mm 0,0 km/h (0 Bft) O-SO 112 0 min -2,8 C 0,0 km/h (0 Bft)
23.03.2016 03:55 0,5 C 0,1 C 79 % 1006,5 hPa 0,0 mm 0,0 km/h (0 Bft) SO 135 0 min -2,7 C 0,0 km/h (0 Bft)
23.03.2016 04:00 0,4 C 0,1 C 79 % 1006,5 hPa 0,0 mm 0,0 km/h (0 Bft) N-NO 22 0 min -2,8 C 0,0 km/h (0 Bft)
23.03.2016 04:05 0,2 C -0,1 C 79 % 1006,5 hPa 0,0 mm 0,0 km/h (0 Bft) O-NO 67 0 min -3,0 C 0,0 km/h (0 Bft)
23.03.2016 04:10 0,2 C -0,1 C 79 % 1006,4 hPa 0,0 mm 0,0 km/h (0 Bft) NO 45 0 min -3,0 C 0,0 km/h (0 Bft)
23.03.2016 04:15 0,1 C -0,2 C 79 % 1006,4 hPa 0,0 mm 0,0 km/h (0 Bft) NO 45 0 min -3,1 C 0,0 km/h (0 Bft)
23.03.2016 04:20 0,3 C -0,1 C 79 % 1006,4 hPa 0,0 mm 0,0 km/h (0 Bft) S-SO 157 0 min -2,9 C 0,0 km/h (0 Bft)
23.03.2016 04:25 0,5 C 0,1 C 80 % 1006,4 hPa 0,0 mm 0,0 km/h (0 Bft) S-SO 157 0 min -2,5 C 0,0 km/h (0 Bft)
23.03.2016 04:30 0,5 C 0,2 C 78 % 1006,2 hPa 0,0 mm 0,0 km/h (0 Bft) S 180 0 min -2,9 C 0,0 km/h (0 Bft)
23.03.2016 04:35 0,4 C 0,1 C 79 % 1006,2 hPa 0,0 mm 0,0 km/h (0 Bft) N-NO 22 0 min -2,8 C 0,0 km/h (0 Bft)
23.03.2016 04:40 0,2 C -0,1 C 79 % 1006,2 hPa 0,0 mm 0,0 km/h (0 Bft) NW 315 0 min -3,0 C 0,0 km/h (0 Bft)
23.03.2016 04:45 0,1 C -0,2 C 79 % 1006,2 hPa 0,0 mm 0,0 km/h (0 Bft) S-SO 157 0 min -3,1 C 0,0 km/h (0 Bft)
23.03.2016 04:50 0,2 C -0,1 C 80 % 1006,1 hPa 0,0 mm 0,0 km/h (0 Bft) S-SO 157 0 min -2,8 C 0,0 km/h (0 Bft)
23.03.2016 04:55 0,3 C -0,1 C 80 % 1006,1 hPa 0,0 mm 0,0 km/h (0 Bft) SO 135 0 min -2,7 C 0,0 km/h (0 Bft)
23.03.2016 05:00 0,2 C -0,1 C 80 % 1006,1 hPa 0,0 mm 0,0 km/h (0 Bft) SO 135 0 min -2,8 C 0,0 km/h (0 Bft)
23.03.2016 05:05 0,4 C 0,0 C 81 % 1006,1 hPa 0,0 mm 0,0 km/h (0 Bft) SO 135 0 min -2,5 C 0,0 km/h (0 Bft)
23.03.2016 05:10 0,4 C 0,1 C 78 % 1006,0 hPa 0,0 mm 0,0 km/h (0 Bft) S-SO 157 0 min -3,0 C 0,0 km/h (0 Bft)
23.03.2016 05:15 0,5 C 0,2 C 79 % 1006,0 hPa 0,0 mm 0,6 km/h (0 Bft) S-SO 157 0 min -2,7 C 3,3 km/h (1 Bft)
23.03.2016 05:20 0,5 C 0,3 C 79 % 1006,0 hPa 0,0 mm 0,6 km/h (0 Bft) S-SW 202 0 min -2,7 C 0,0 km/h (0 Bft)
23.03.2016 05:25 0,5 C 0,2 C 80 % 1006,0 hPa 0,0 mm 0,3 km/h (0 Bft) O-SO 112 0 min -2,5 C 0,0 km/h (0 Bft)
23.03.2016 05:30 0,4 C 0,1 C 80 % 1005,9 hPa 0,0 mm 0,0 km/h (0 Bft) NO 45 0 min -2,6 C 0,0 km/h (0 Bft)
23.03.2016 05:35 0,2 C -0,1 C 80 % 1005,9 hPa 0,0 mm 0,0 km/h (0 Bft) N-NO 22 0 min -2,8 C 0,0 km/h (0 Bft)
23.03.2016 05:40 0,1 C -0,2 C 80 % 1005,9 hPa 0,0 mm 0,0 km/h (0 Bft) SO 135 0 min -2,9 C 0,0 km/h (0 Bft)
23.03.2016 05:45 0,4 C 0,0 C 80 % 1005,9 hPa 0,0 mm 0,0 km/h (0 Bft) SO 135 0 min -2,6 C 0,0 km/h (0 Bft)
23.03.2016 05:50 0,4 C 0,1 C 80 % 1005,9 hPa 0,0 mm 0,0 km/h (0 Bft) SO 135 0 min -2,6 C 0,0 km/h (0 Bft)
23.03.2016 05:55 0,4 C 0,1 C 80 % 1005,9 hPa 0,0 mm 0,0 km/h (0 Bft) N-NW 337 0 min -2,6 C 0,0 km/h (0 Bft)
23.03.2016 06:00 0,2 C -0,1 C 80 % 1005,9 hPa 0,0 mm 0,0 km/h (0 Bft) N-NO 22 0 min -2,8 C 0,0 km/h (0 Bft)
23.03.2016 06:05 0,2 C -0,1 C 80 % 1005,9 hPa 0,0 mm 0,0 km/h (0 Bft) O-SO 112 0 min -2,8 C 0,0 km/h (0 Bft)
23.03.2016 06:10 0,2 C -0,1 C 80 % 1006,0 hPa 0,0 mm 0,0 km/h (0 Bft) O-NO 67 0 min -2,8 C 0,0 km/h (0 Bft)
23.03.2016 06:15 0,2 C -0,1 C 80 % 1006,0 hPa 0,0 mm 0,0 km/h (0 Bft) O-NO 67 0 min -2,8 C 0,0 km/h (0 Bft)
23.03.2016 06:20 0,1 C -0,2 C 80 % 1006,0 hPa 0,0 mm 0,0 km/h (0 Bft) O-NO 67 0 min -2,9 C 0,0 km/h (0 Bft)
23.03.2016 06:25 0,1 C -0,2 C 80 % 1006,0 hPa 0,0 mm 0,0 km/h (0 Bft) W 270 0 min -2,9 C 0,0 km/h (0 Bft)
23.03.2016 06:30 0,1 C -0,2 C 80 % 1006,2 hPa 0,0 mm 0,0 km/h (0 Bft) W-NW 292 0 min -2,9 C 0,0 km/h (0 Bft)
23.03.2016 06:35 0,1 C -0,2 C 80 % 1006,2 hPa 0,0 mm 0,0 km/h (0 Bft) S-SO 157 0 min -2,9 C 0,0 km/h (0 Bft)
23.03.2016 06:40 0,2 C -0,1 C 81 % 1006,2 hPa 0,0 mm 0,0 km/h (0 Bft) S-SO 157 0 min -2,7 C 0,0 km/h (0 Bft)
23.03.2016 06:45 0,3 C 0,0 C 81 % 1006,2 hPa 0,0 mm 0,0 km/h (0 Bft) O-NO 67 0 min -2,6 C 0,0 km/h (0 Bft)
23.03.2016 06:46 0,3 C 0,0 C 81 % 1006,2 hPa 0,0 mm 0,0 km/h (0 Bft) O-NO 67 0 min -2,6 C 0,0 km/h (0 Bft)
23.03.2016 06:50 0,3 C 0,0 C 81 % 1006,2 hPa 0,0 mm 0,0 km/h (0 Bft) O-NO 67 0 min -2,6 C 0,0 km/h (0 Bft)
23.03.2016 06:55 0,3 C 0,0 C 81 % 1006,2 hPa 0,0 mm 0,0 km/h (0 Bft) SO 135 0 min -2,6 C 0,0 km/h (0 Bft)
23.03.2016 07:00 0,3 C 0,1 C 79 % 1006,2 hPa 0,0 mm 0,0 km/h (0 Bft) SO 135 0 min -2,9 C 0,0 km/h (0 Bft)
23.03.2016 07:05 0,5 C 0,3 C 79 % 1006,2 hPa 0,0 mm 0,0 km/h (0 Bft) N-NO 22 0 min -2,7 C 0,0 km/h (0 Bft)
23.03.2016 07:10 0,4 C 0,2 C 82 % 1006,4 hPa 0,0 mm 0,0 km/h (0 Bft) N-NW 337 0 min -2,3 C 0,0 km/h (0 Bft)
23.03.2016 07:15 0,3 C 0,1 C 82 % 1006,4 hPa 0,0 mm 0,0 km/h (0 Bft) SO 135 0 min -2,4 C 0,0 km/h (0 Bft)
23.03.2016 07:20 0,3 C 0,2 C 79 % 1006,4 hPa 0,0 mm 0,0 km/h (0 Bft) NO 45 0 min -2,9 C 0,0 km/h (0 Bft)
23.03.2016 07:25 0,3 C 0,2 C 79 % 1006,4 hPa 0,0 mm 0,0 km/h (0 Bft) O 90 0 min -2,9 C 0,0 km/h (0 Bft)
23.03.2016 07:30 0,4 C 0,4 C 79 % 1006,4 hPa 0,0 mm 0,0 km/h (0 Bft) O-SO 112 0 min -2,8 C 0,0 km/h (0 Bft)
23.03.2016 07:35 0,5 C 0,5 C 80 % 1006,4 hPa 0,0 mm 0,0 km/h (0 Bft) NO 45 0 min -2,5 C 0,0 km/h (0 Bft)
23.03.2016 07:40 0,6 C 0,7 C 80 % 1006,4 hPa 0,0 mm 0,0 km/h (0 Bft) N-NO 22 0 min -2,4 C 0,0 km/h (0 Bft)
23.03.2016 07:45 0,7 C 0,8 C 80 % 1006,4 hPa 0,0 mm 0,0 km/h (0 Bft) NW 315 0 min -2,3 C 0,0 km/h (0 Bft)
23.03.2016 07:50 0,7 C 0,9 C 80 % 1006,5 hPa 0,0 mm 0,0 km/h (0 Bft) W 270 0 min -2,3 C 0,0 km/h (0 Bft)
23.03.2016 07:55 0,7 C 1,0 C 80 % 1006,5 hPa 0,0 mm 0,0 km/h (0 Bft) N 360 0 min -2,3 C 0,0 km/h (0 Bft)
23.03.2016 08:00 0,7 C 1,1 C 80 % 1006,5 hPa 0,0 mm 0,0 km/h (0 Bft) N-NW 337 0 min -2,3 C 0,0 km/h (0 Bft)
23.03.2016 08:05 0,9 C 1,2 C 80 % 1006,5 hPa 0,0 mm 0,0 km/h (0 Bft) N-NW 337 0 min -2,2 C 0,0 km/h (0 Bft)
23.03.2016 08:10 0,9 C 1,4 C 80 % 1006,6 hPa 0,0 mm 0,0 km/h (0 Bft) N 360 0 min -2,2 C 0,0 km/h (0 Bft)
23.03.2016 08:15 1,1 C 1,4 C 79 % 1006,6 hPa 0,0 mm 0,3 km/h (0 Bft) O-NO 67 0 min -2,1 C 0,0 km/h (0 Bft)
23.03.2016 08:20 1,3 C 1,6 C 79 % 1006,6 hPa 0,0 mm 0,3 km/h (0 Bft) NO 45 0 min -1,9 C 0,0 km/h (0 Bft)
23.03.2016 08:25 1,3 C 1,7 C 79 % 1006,6 hPa 0,0 mm 0,6 km/h (0 Bft) O-SO 112 0 min -1,9 C 4,2 km/h (1 Bft)
23.03.2016 08:30 1,4 C 1,9 C 79 % 1006,7 hPa 0,0 mm 1,2 km/h (1 Bft) O-NO 67 0 min -1,8 C 0,0 km/h (0 Bft)
23.03.2016 08:35 1,5 C 2,0 C 79 % 1006,7 hPa 0,0 mm 1,2 km/h (1 Bft) O 90 0 min -1,7 C 4,8 km/h (1 Bft)
23.03.2016 08:40 1,5 C 2,1 C 79 % 1006,7 hPa 0,0 mm 1,5 km/h (1 Bft) NO 45 0 min -1,7 C 7,7 km/h (2 Bft)
23.03.2016 08:45 1,6 C 2,3 C 79 % 1006,7 hPa 0,0 mm 2,4 km/h (1 Bft) O-NO 67 0 min -1,6 C 3,9 km/h (1 Bft)
23.03.2016 08:50 1,6 C 2,3 C 79 % 1006,8 hPa 0,0 mm 3,0 km/h (1 Bft) NO 45 0 min -1,6 C 8,3 km/h (2 Bft)
23.03.2016 08:55 1,6 C 2,4 C 79 % 1006,8 hPa 0,0 mm 4,5 km/h (1 Bft) O-SO 112 0 min -1,6 C 8,9 km/h (2 Bft)
23.03.2016 09:00 1,7 C 2,4 C 79 % 1006,8 hPa 0,0 mm 3,9 km/h (1 Bft) O-NO 67 0 min -1,5 C 5,4 km/h (1 Bft)
23.03.2016 09:05 1,8 C 2,5 C 79 % 1006,8 hPa 0,0 mm 3,6 km/h (1 Bft) NO 45 0 min -1,4 C 3,9 km/h (1 Bft)
23.03.2016 09:10 1,8 C 2,6 C 78 % 1006,9 hPa 0,0 mm 3,9 km/h (1 Bft) O-NO 67 0 min -1,6 C 3,0 km/h (1 Bft)
23.03.2016 09:15 1,7 C 2,6 C 78 % 1006,9 hPa 0,0 mm 4,5 km/h (1 Bft) NO 45 0 min -1,7 C 11,3 km/h (2 Bft)
23.03.2016 09:20 1,8 C 2,2 C 78 % 1006,9 hPa 0,0 mm 5,4 km/h (1 Bft) N 360 0 min -1,6 C 8,9 km/h (2 Bft)
23.03.2016 09:25 1,8 C 2,1 C 78 % 1006,9 hPa 0,0 mm 5,4 km/h (1 Bft) O-NO 67 0 min -1,6 C 12,8 km/h (3 Bft)
23.03.2016 09:30 1,8 C 2,3 C 78 % 1007,0 hPa 0,0 mm 4,5 km/h (1 Bft) NO 45 0 min -1,6 C 3,6 km/h (1 Bft)
23.03.2016 09:35 1,7 C 1,8 C 78 % 1007,0 hPa 0,0 mm 7,2 km/h (2 Bft) NO 45 0 min -1,7 C 15,8 km/h (3 Bft)
23.03.2016 09:40 1,7 C 1,5 C 78 % 1007,0 hPa 0,0 mm 9,2 km/h (2 Bft) O-NO 67 0 min -1,7 C 14,3 km/h (3 Bft)
23.03.2016 09:45 1,6 C 1,4 C 78 % 1007,0 hPa 0,0 mm 8,0 km/h (2 Bft) NW 315 0 min -1,8 C 8,0 km/h (2 Bft)
23.03.2016 09:47 1,6 C 1,4 C 78 % 1007,0 hPa 0,0 mm 8,0 km/h (2 Bft) NW 315 0 min -1,8 C 8,0 km/h (2 Bft)
23.03.2016 09:50 1,5 C 1,6 C 78 % 1007,1 hPa 0,0 mm 6,6 km/h (2 Bft) N-NO 22 0 min -1,9 C 10,4 km/h (2 Bft)
23.03.2016 09:55 1,4 C 1,4 C 78 % 1007,1 hPa 0,0 mm 6,0 km/h (2 Bft) N-NO 22 0 min -2,0 C 8,0 km/h (2 Bft)
23.03.2016 10:00 1,4 C 1,3 C 78 % 1007,1 hPa 0,0 mm 6,6 km/h (2 Bft) N-NW 337 0 min -2,0 C 10,4 km/h (2 Bft)
23.03.2016 10:05 1,3 C 1,1 C 78 % 1007,1 hPa 0,0 mm 6,9 km/h (2 Bft) N-NW 337 0 min -2,1 C 8,0 km/h (2 Bft)
23.03.2016 10:10 1,1 C 1,2 C 78 % 1007,0 hPa 0,0 mm 6,3 km/h (2 Bft) O-NO 67 0 min -2,3 C 3,9 km/h (1 Bft)
23.03.2016 10:15 1,1 C 1,3 C 79 % 1007,0 hPa 0,0 mm 3,3 km/h (1 Bft) N-NW 337 0 min -2,1 C 0,0 km/h (0 Bft)
23.03.2016 10:20 1,1 C 1,4 C 79 % 1007,0 hPa 0,0 mm 2,1 km/h (1 Bft) NW 315 0 min -2,1 C 5,7 km/h (1 Bft)
23.03.2016 10:25 1,3 C 1,7 C 79 % 1007,0 hPa 0,0 mm 2,4 km/h (1 Bft) O-NO 67 0 min -1,9 C 5,1 km/h (1 Bft)
23.03.2016 10:30 1,3 C 1,9 C 79 % 1007,1 hPa 0,0 mm 1,8 km/h (1 Bft) N-NO 22 0 min -1,9 C 0,0 km/h (0 Bft)
23.03.2016 10:35 1,4 C 2,0 C 79 % 1007,1 hPa 0,0 mm 2,7 km/h (1 Bft) N-NW 337 0 min -1,8 C 3,3 km/h (1 Bft)
23.03.2016 10:40 1,5 C 2,2 C 80 % 1007,1 hPa 0,0 mm 3,6 km/h (1 Bft) N-NO 22 0 min -1,6 C 6,0 km/h (2 Bft)
23.03.2016 10:45 1,7 C 2,3 C 80 % 1007,1 hPa 0,0 mm 3,9 km/h (1 Bft) N-NO 22 0 min -1,4 C 4,8 km/h (1 Bft)
23.03.2016 10:50 1,7 C 2,5 C 80 % 1007,1 hPa 0,0 mm 3,9 km/h (1 Bft) NW 315 0 min -1,4 C 3,9 km/h (1 Bft)
23.03.2016 10:55 1,9 C 2,8 C 80 % 1007,1 hPa 0,0 mm 3,0 km/h (1 Bft) N-NO 22 0 min -1,2 C 3,0 km/h (1 Bft)
23.03.2016 11:00 2,0 C 2,9 C 80 % 1007,1 hPa 0,0 mm 2,7 km/h (1 Bft) O-NO 67 0 min -1,1 C 4,2 km/h (1 Bft)
23.03.2016 11:05 1,8 C 3,0 C 80 % 1007,1 hPa 0,0 mm 2,1 km/h (1 Bft) O-SO 112 0 min -1,3 C 3,0 km/h (1 Bft)
23.03.2016 11:10 1,8 C 2,9 C 80 % 1007,1 hPa 0,0 mm 0,9 km/h (0 Bft) O-NO 67 0 min -1,3 C 0,0 km/h (0 Bft)
23.03.2016 11:15 1,8 C 2,9 C 80 % 1007,1 hPa 0,0 mm 0,6 km/h (0 Bft) N-NW 337 0 min -1,3 C 6,9 km/h (2 Bft)
23.03.2016 11:20 1,9 C 2,7 C 80 % 1007,1 hPa 0,0 mm 2,4 km/h (1 Bft) N-NO 22 0 min -1,2 C 3,3 km/h (1 Bft)
23.03.2016 11:25 2,1 C 2,8 C 79 % 1007,1 hPa 0,0 mm 3,6 km/h (1 Bft) SW 225 0 min -1,2 C 8,0 km/h (2 Bft)
23.03.2016 11:30 2,0 C 2,7 C 79 % 1007,2 hPa 0,0 mm 4,5 km/h (1 Bft) N-NW 337 0 min -1,2 C 7,2 km/h (2 Bft)
23.03.2016 11:35 1,9 C 2,6 C 80 % 1007,2 hPa 0,0 mm 5,1 km/h (1 Bft) N 360 0 min -1,2 C 6,9 km/h (2 Bft)
23.03.2016 11:40 2,1 C 2,5 C 79 % 1007,2 hPa 0,0 mm 3,3 km/h (1 Bft) NO 45 0 min -1,2 C 4,2 km/h (1 Bft)
23.03.2016 11:45 1,9 C 2,4 C 80 % 1007,2 hPa 0,0 mm 2,7 km/h (1 Bft) O-NO 67 0 min -1,2 C 5,1 km/h (1 Bft)
23.03.2016 11:50 1,8 C 2,1 C 80 % 1007,2 hPa 0,0 mm 3,9 km/h (1 Bft) O-NO 67 0 min -1,3 C 6,0 km/h (2 Bft)
23.03.2016 11:55 1,6 C 1,9 C 80 % 1007,2 hPa 0,0 mm 4,8 km/h (1 Bft) O-NO 67 0 min -1,5 C 0,0 km/h (0 Bft)
23.03.2016 12:00 1,6 C 1,9 C 80 % 1007,2 hPa 0,0 mm 3,0 km/h (1 Bft) N-NO 22 0 min -1,5 C 0,0 km/h (0 Bft)
23.03.2016 12:05 1,7 C 1,9 C 80 % 1007,2 hPa 0,0 mm 1,8 km/h (1 Bft) N-NW 337 0 min -1,4 C 4,5 km/h (1 Bft)
23.03.2016 12:10 1,6 C 1,7 C 80 % 1007,4 hPa 0,0 mm 3,6 km/h (1 Bft) N-NO 22 0 min -1,5 C 3,3 km/h (1 Bft)
23.03.2016 12:15 1,5 C 1,6 C 80 % 1007,4 hPa 0,0 mm 2,7 km/h (1 Bft) NO 45 0 min -1,6 C 3,3 km/h (1 Bft)
23.03.2016 12:20 1,4 C 1,5 C 80 % 1007,4 hPa 0,0 mm 1,2 km/h (1 Bft) NO 45 0 min -1,7 C 0,0 km/h (0 Bft)
23.03.2016 12:25 1,4 C 1,4 C 81 % 1007,4 hPa 0,0 mm 0,6 km/h (0 Bft) O-NO 67 0 min -1,5 C 0,0 km/h (0 Bft)
23.03.2016 12:30 1,4 C 1,5 C 81 % 1007,3 hPa 0,0 mm 0,0 km/h (0 Bft) O-SO 112 0 min -1,5 C 0,0 km/h (0 Bft)
23.03.2016 12:35 1,4 C 1,8 C 81 % 1007,3 hPa 0,0 mm 0,0 km/h (0 Bft) O 90 0 min -1,5 C 0,0 km/h (0 Bft)
23.03.2016 12:40 1,5 C 2,0 C 81 % 1007,3 hPa 0,0 mm 0,0 km/h (0 Bft) O-SO 112 0 min -1,4 C 0,0 km/h (0 Bft)
23.03.2016 12:45 1,7 C 2,6 C 81 % 1007,3 hPa 0,0 mm 0,0 km/h (0 Bft) SO 135 0 min -1,2 C 0,0 km/h (0 Bft)
23.03.2016 12:48 1,7 C 2,6 C 81 % 1007,3 hPa 0,0 mm 0,0 km/h (0 Bft) SO 135 0 min -1,2 C 0,0 km/h (0 Bft)
23.03.2016 12:50 1,9 C 3,1 C 81 % 1007,2 hPa 0,0 mm 0,0 km/h (0 Bft) S 180 0 min -1,0 C 0,0 km/h (0 Bft)
23.03.2016 12:55 1,9 C 3,7 C 81 % 1007,2 hPa 0,0 mm 0,0 km/h (0 Bft) N-NW 337 0 min -1,0 C 0,0 km/h (0 Bft)
23.03.2016 13:00 2,0 C 4,2 C 81 % 1007,2 hPa 0,0 mm 0,0 km/h (0 Bft) W-NW 292 0 min -0,9 C 0,0 km/h (0 Bft)
23.03.2016 13:05 2,5 C 5,1 C 81 % 1007,2 hPa 0,7 mm 0,0 km/h (0 Bft) SW 225 0 min -0,4 C 3,0 km/h (1 Bft)
23.03.2016 13:10 2,4 C 5,5 C 81 % 1007,3 hPa 0,0 mm 2,7 km/h (1 Bft) NW 315 0 min -0,5 C 10,1 km/h (2 Bft)
23.03.2016 13:15 2,7 C 5,5 C 81 % 1007,3 hPa 0,0 mm 5,1 km/h (1 Bft) W 270 0 min -0,2 C 8,0 km/h (2 Bft)
23.03.2016 13:20 2,9 C 5,8 C 81 % 1007,3 hPa 0,0 mm 4,2 km/h (1 Bft) NO 45 0 min -0,0 C 0,0 km/h (0 Bft)
23.03.2016 13:25 3,3 C 6,1 C 79 % 1007,3 hPa 0,0 mm 4,5 km/h (1 Bft) W 270 0 min 0,0 C 8,3 km/h (2 Bft)
23.03.2016 13:30 3,4 C 6,6 C 79 % 1007,1 hPa 0,0 mm 4,2 km/h (1 Bft) W 270 0 min 0,1 C 3,0 km/h (1 Bft)
23.03.2016 13:35 3,4 C 6,9 C 79 % 1007,1 hPa 0,0 mm 3,9 km/h (1 Bft) W 270 0 min 0,1 C 0,0 km/h (0 Bft)
23.03.2016 13:40 3,6 C 7,1 C 79 % 1007,1 hPa 0,0 mm 4,2 km/h (1 Bft) W-NW 292 0 min 0,3 C 6,3 km/h (2 Bft)
23.03.2016 13:45 3,8 C 7,4 C 78 % 1007,1 hPa 0,0 mm 2,7 km/h (1 Bft) O-SO 112 5 min 0,3 C 0,0 km/h (0 Bft)
23.03.2016 13:50 3,8 C 7,9 C 77 % 1007,0 hPa 0,0 mm 1,8 km/h (1 Bft) W-SW 247 5 min 0,1 C 6,3 km/h (2 Bft)
23.03.2016 13:55 4,2 C 8,5 C 77 % 1007,0 hPa 0,0 mm 2,4 km/h (1 Bft) W-NW 292 5 min 0,5 C 7,7 km/h (2 Bft)
23.03.2016 14:00 4,3 C 8,5 C 77 % 1007,0 hPa 0,0 mm 3,6 km/h (1 Bft) N-NW 337 5 min 0,6 C 5,7 km/h (1 Bft)
23.03.2016 14:05 4,6 C 8,6 C 76 % 1007,0 hPa 0,0 mm 3,9 km/h (1 Bft) SW 225 5 min 0,7 C 5,7 km/h (1 Bft)
23.03.2016 14:10 4,7 C 8,9 C 76 % 1007,0 hPa 0,0 mm 4,5 km/h (1 Bft) N-NO 22 5 min 0,8 C 3,0 km/h (1 Bft)
23.03.2016 14:15 4,5 C 8,9 C 75 % 1007,0 hPa 0,0 mm 4,2 km/h (1 Bft) S 180 5 min 0,5 C 4,8 km/h (1 Bft)
23.03.2016 14:20 4,2 C 8,5 C 74 % 1007,0 hPa 0,0 mm 3,0 km/h (1 Bft) SO 135 5 min -0,0 C 0,0 km/h (0 Bft)
23.03.2016 14:25 4,2 C 7,5 C 74 % 1007,0 hPa 0,0 mm 3,3 km/h (1 Bft) W-NW 292 5 min -0,0 C 6,0 km/h (2 Bft)
23.03.2016 14:30 3,9 C 6,5 C 73 % 1007,0 hPa 0,0 mm 2,1 km/h (1 Bft) S-SO 157 0 min -0,5 C 3,9 km/h (1 Bft)
23.03.2016 14:35 3,4 C 5,3 C 72 % 1007,0 hPa 0,0 mm 3,0 km/h (1 Bft) O-SO 112 0 min -1,2 C 0,0 km/h (0 Bft)
23.03.2016 14:40 3,1 C 4,7 C 72 % 1007,0 hPa 0,0 mm 1,8 km/h (1 Bft) N-NO 22 0 min -1,4 C 0,0 km/h (0 Bft)
23.03.2016 14:45 2,7 C 3,8 C 74 % 1007,0 hPa 0,0 mm 0,0 km/h (0 Bft) O-SO 112 0 min -1,5 C 0,0 km/h (0 Bft)
23.03.2016 14:50 2,5 C 3,4 C 74 % 1007,0 hPa 0,0 mm 0,0 km/h (0 Bft) O-SO 112 0 min -1,7 C 0,0 km/h (0 Bft)
23.03.2016 14:55 2,4 C 3,2 C 75 % 1007,0 hPa 0,0 mm 0,3 km/h (0 Bft) O-SO 112 0 min -1,6 C 0,0 km/h (0 Bft)
23.03.2016 15:00 2,4 C 3,2 C 75 % 1007,0 hPa 0,0 mm 0,3 km/h (0 Bft) S-SO 157 0 min -1,6 C 0,0 km/h (0 Bft)
23.03.2016 15:05 2,4 C 3,3 C 76 % 1007,0 hPa 0,0 mm 0,0 km/h (0 Bft) SO 135 0 min -1,4 C 0,0 km/h (0 Bft)
23.03.2016 15:10 2,4 C 3,5 C 76 % 1007,1 hPa 0,0 mm 0,3 km/h (0 Bft) S 180 0 min -1,4 C 5,4 km/h (1 Bft)
23.03.2016 15:15 2,5 C 3,5 C 77 % 1007,1 hPa 0,0 mm 1,2 km/h (1 Bft) S 180 0 min -1,1 C 0,0 km/h (0 Bft)
23.03.2016 15:20 2,5 C 3,6 C 77 % 1007,1 hPa 0,0 mm 1,2 km/h (1 Bft) S-SO 157 0 min -1,1 C 0,0 km/h (0 Bft)
23.03.2016 15:25 2,6 C 3,9 C 77 % 1007,1 hPa 0,0 mm 0,0 km/h (0 Bft) S-SO 157 0 min -1,0 C 0,0 km/h (0 Bft)
23.03.2016 15:30 2,8 C 4,2 C 77 % 1007,0 hPa 0,0 mm 0,0 km/h (0 Bft) W-NW 292 0 min -0,8 C 0,0 km/h (0 Bft)
23.03.2016 15:35 3,3 C 4,7 C 76 % 1007,0 hPa 0,0 mm 2,4 km/h (1 Bft) NW 315 0 min -0,5 C 4,5 km/h (1 Bft)
23.03.2016 15:40 3,5 C 5,0 C 76 % 1007,0 hPa 0,0 mm 4,2 km/h (1 Bft) NW 315 0 min -0,3 C 9,2 km/h (2 Bft)
23.03.2016 15:45 3,7 C 5,2 C 75 % 1007,0 hPa 0,0 mm 5,4 km/h (1 Bft) W-SW 247 0 min -0,3 C 8,3 km/h (2 Bft)
23.03.2016 15:48 3,7 C 5,4 C 74 % 1007,1 hPa 0,0 mm 5,7 km/h (1 Bft) W-SW 247 0 min -0,5 C 5,4 km/h (1 Bft)
23.03.2016 15:49 3,7 C 5,4 C 74 % 1007,1 hPa 0,0 mm 5,7 km/h (1 Bft) W-SW 247 0 min -0,5 C 5,4 km/h (1 Bft)
23.03.2016 15:50 3,7 C 5,4 C 74 % 1007,1 hPa 0,0 mm 5,7 km/h (1 Bft) W-SW 247 0 min -0,5 C 5,4 km/h (1 Bft)
23.03.2016 15:55 3,7 C 5,6 C 74 % 1007,1 hPa 0,0 mm 2,7 km/h (1 Bft) W-NW 292 0 min -0,5 C 0,0 km/h (0 Bft)
23.03.2016 16:00 3,8 C 5,7 C 74 % 1007,1 hPa 0,0 mm 2,1 km/h (1 Bft) W 270 0 min -0,4 C 7,5 km/h (2 Bft)
23.03.2016 16:05 3,9 C 5,5 C 74 % 1007,1 hPa 0,0 mm 3,9 km/h (1 Bft) W 270 0 min -0,3 C 0,0 km/h (0 Bft)
23.03.2016 16:10 3,9 C 5,4 C 74 % 1007,2 hPa 0,0 mm 3,9 km/h (1 Bft) W-SW 247 0 min -0,3 C 4,5 km/h (1 Bft)
23.03.2016 16:15 3,9 C 5,2 C 74 % 1007,2 hPa 0,0 mm 3,3 km/h (1 Bft) W-NW 292 0 min -0,3 C 4,8 km/h (1 Bft)
23.03.2016 16:20 3,8 C 4,9 C 74 % 1007,2 hPa 0,0 mm 3,9 km/h (1 Bft) W 270 0 min -0,4 C 4,8 km/h (1 Bft)
23.03.2016 16:25 3,7 C 4,5 C 73 % 1007,2 hPa 0,0 mm 3,3 km/h (1 Bft) W-SW 247 0 min -0,7 C 7,5 km/h (2 Bft)
23.03.2016 16:30 3,7 C 4,5 C 73 % 1007,4 hPa 0,0 mm 3,6 km/h (1 Bft) N-NO 22 0 min -0,7 C 6,3 km/h (2 Bft)
23.03.2016 16:35 3,8 C 4,1 C 73 % 1007,4 hPa 0,0 mm 6,9 km/h (2 Bft) NW 315 0 min -0,6 C 17,3 km/h (3 Bft)
23.03.2016 16:40 3,9 C 4,0 C 72 % 1007,4 hPa 0,7 mm 8,6 km/h (2 Bft) N-NW 337 0 min -0,7 C 8,3 km/h (2 Bft)
23.03.2016 16:45 3,9 C 3,8 C 71 % 1007,4 hPa 0,0 mm 8,0 km/h (2 Bft) N-NW 337 0 min -0,9 C 11,9 km/h (2 Bft)
23.03.2016 16:50 3,8 C 3,8 C 71 % 1007,4 hPa 0,0 mm 7,5 km/h (2 Bft) N-NW 337 0 min -1,0 C 16,1 km/h (3 Bft)
23.03.2016 16:55 3,7 C 3,5 C 70 % 1007,4 hPa 0,0 mm 8,9 km/h (2 Bft) NW 315 0 min -1,3 C 15,5 km/h (3 Bft)
23.03.2016 17:00 3,7 C 3,3 C 70 % 1007,4 hPa 0,0 mm 9,5 km/h (2 Bft) W-NW 292 0 min -1,3 C 6,3 km/h (2 Bft)
23.03.2016 17:05 3,6 C 3,3 C 70 % 1007,4 hPa 0,0 mm 8,3 km/h (2 Bft) W-SW 247 0 min -1,3 C 6,6 km/h (2 Bft)
23.03.2016 17:10 3,5 C 3,3 C 70 % 1007,4 hPa 0,0 mm 7,2 km/h (2 Bft) W-SW 247 0 min -1,4 C 8,0 km/h (2 Bft)
23.03.2016 17:15 3,4 C 3,1 C 70 % 1007,4 hPa 0,0 mm 7,5 km/h (2 Bft) NW 315 0 min -1,5 C 6,9 km/h (2 Bft)
23.03.2016 17:20 3,3 C 3,1 C 70 % 1007,4 hPa 0,0 mm 6,3 km/h (2 Bft) W 270 0 min -1,6 C 6,3 km/h (2 Bft)
23.03.2016 17:25 3,2 C 3,1 C 70 % 1007,4 hPa 0,0 mm 4,8 km/h (1 Bft) W-SW 247 0 min -1,7 C 5,1 km/h (1 Bft)
23.03.2016 17:30 3,1 C 3,0 C 71 % 1007,7 hPa 0,0 mm 4,5 km/h (1 Bft) W-SW 247 0 min -1,6 C 5,7 km/h (1 Bft)
23.03.2016 17:35 2,9 C 2,9 C 73 % 1007,7 hPa 0,0 mm 4,5 km/h (1 Bft) W 270 0 min -1,5 C 3,9 km/h (1 Bft)
23.03.2016 17:40 2,9 C 2,8 C 73 % 1007,7 hPa 0,0 mm 3,3 km/h (1 Bft) W 270 0 min -1,5 C 3,6 km/h (1 Bft)
23.03.2016 17:45 2,8 C 2,8 C 73 % 1007,7 hPa 0,0 mm 1,8 km/h (1 Bft) W-SW 247 0 min -1,5 C 3,0 km/h (1 Bft)
23.03.2016 17:50 2,8 C 2,7 C 73 % 1007,9 hPa 0,0 mm 1,8 km/h (1 Bft) W-SW 247 0 min -1,5 C 0,0 km/h (0 Bft)
23.03.2016 17:56 2,7 C 2,6 C 74 % 1007,9 hPa 0,0 mm 4,2 km/h (1 Bft) S 180 0 min -1,5 C 7,7 km/h (2 Bft)
23.03.2016 18:00 2,7 C 2,5 C 74 % 1007,9 hPa 0,0 mm 5,4 km/h (1 Bft) W-SW 247 0 min -1,5 C 0,0 km/h (0 Bft)
23.03.2016 18:05 2,7 C 2,4 C 74 % 1007,9 hPa 0,0 mm 5,7 km/h (1 Bft) W-SW 247 0 min -1,5 C 7,7 km/h (2 Bft)
23.03.2016 18:10 2,6 C 2,4 C 74 % 1008,2 hPa 0,0 mm 5,1 km/h (1 Bft) SW 225 0 min -1,6 C 6,6 km/h (2 Bft)
23.03.2016 18:15 2,5 C 2,3 C 74 % 1008,2 hPa 0,0 mm 4,5 km/h (1 Bft) S-SW 202 0 min -1,7 C 5,7 km/h (1 Bft)
23.03.2016 18:20 2,5 C 2,3 C 74 % 1008,2 hPa 0,0 mm 4,2 km/h (1 Bft) SW 225 0 min -1,7 C 6,3 km/h (2 Bft)
23.03.2016 18:25 2,4 C 2,2 C 75 % 1008,2 hPa 0,0 mm 5,1 km/h (1 Bft) SW 225 0 min -1,6 C 7,7 km/h (2 Bft)
23.03.2016 18:30 2,4 C 2,1 C 75 % 1008,1 hPa 0,0 mm 6,0 km/h (2 Bft) S-SW 202 0 min -1,6 C 4,2 km/h (1 Bft)
23.03.2016 18:35 2,4 C 2,1 C 75 % 1008,1 hPa 0,0 mm 6,3 km/h (2 Bft) W-SW 247 0 min -1,6 C 5,7 km/h (1 Bft)
23.03.2016 18:40 2,4 C 2,1 C 75 % 1008,1 hPa 0,0 mm 6,0 km/h (2 Bft) S 180 0 min -1,6 C 11,0 km/h (2 Bft)
23.03.2016 18:45 2,4 C 1,9 C 75 % 1008,1 hPa 0,0 mm 8,0 km/h (2 Bft) S-SW 202 0 min -1,6 C 10,7 km/h (2 Bft)
23.03.2016 18:48 2,4 C 1,7 C 75 % 1008,4 hPa 0,0 mm 9,8 km/h (2 Bft) S 180 0 min -1,6 C 10,4 km/h (2 Bft)
23.03.2016 18:50 2,4 C 1,7 C 75 % 1008,4 hPa 0,0 mm 9,8 km/h (2 Bft) S 180 0 min -1,6 C 10,4 km/h (2 Bft)
23.03.2016 18:55 2,4 C 1,6 C 75 % 1008,4 hPa 0,0 mm 11,6 km/h (2 Bft) S-SW 202 0 min -1,6 C 10,7 km/h (2 Bft)
23.03.2016 19:00 2,4 C 1,6 C 75 % 1008,4 hPa 0,0 mm 11,3 km/h (2 Bft) SW 225 0 min -1,6 C 14,0 km/h (3 Bft)
23.03.2016 19:05 2,3 C 1,7 C 75 % 1008,4 hPa 0,0 mm 8,9 km/h (2 Bft) W-NW 292 0 min -1,7 C 12,2 km/h (2 Bft)
23.03.2016 19:10 2,3 C 1,7 C 75 % 1008,5 hPa 0,0 mm 8,9 km/h (2 Bft) S-SO 157 0 min -1,7 C 12,2 km/h (2 Bft)
23.03.2016 19:15 2,3 C 1,5 C 75 % 1008,5 hPa 0,0 mm 10,7 km/h (2 Bft) S-SW 202 0 min -1,7 C 20,0 km/h (4 Bft)
23.03.2016 19:20 2,2 C 1,5 C 75 % 1008,5 hPa 0,0 mm 10,1 km/h (2 Bft) SW 225 0 min -1,8 C 9,2 km/h (2 Bft)
23.03.2016 19:25 2,2 C 1,5 C 75 % 1008,5 hPa 0,0 mm 9,5 km/h (2 Bft) S-SW 202 0 min -1,8 C 10,1 km/h (2 Bft)
23.03.2016 19:30 2,1 C 1,4 C 76 % 1008,6 hPa 0,0 mm 10,1 km/h (2 Bft) S-SW 202 0 min -1,7 C 7,5 km/h (2 Bft)
23.03.2016 19:35 2,0 C 1,4 C 76 % 1008,6 hPa 0,0 mm 8,9 km/h (2 Bft) S-SO 157 0 min -1,8 C 11,3 km/h (2 Bft)
23.03.2016 19:40 2,1 C 1,5 C 76 % 1008,6 hPa 0,0 mm 8,6 km/h (2 Bft) SW 225 0 min -1,7 C 7,7 km/h (2 Bft)
23.03.2016 19:45 1,9 C 1,6 C 76 % 1008,6 hPa 0,0 mm 6,3 km/h (2 Bft) SW 225 0 min -1,9 C 8,0 km/h (2 Bft)
23.03.2016 19:50 1,9 C 1,7 C 76 % 1008,9 hPa 0,0 mm 4,8 km/h (1 Bft) S 180 0 min -1,9 C 6,0 km/h (2 Bft)
23.03.2016 19:55 1,8 C 1,6 C 76 % 1008,9 hPa 0,0 mm 3,0 km/h (1 Bft) W-SW 247 0 min -2,0 C 6,3 km/h (2 Bft)
23.03.2016 20:00 1,8 C 1,6 C 77 % 1008,9 hPa 0,0 mm 1,8 km/h (1 Bft) W-SW 247 0 min -1,8 C 0,0 km/h (0 Bft)
23.03.2016 20:05 1,7 C 1,5 C 77 % 1008,9 hPa 0,0 mm 2,1 km/h (1 Bft) S 180 0 min -1,9 C 6,3 km/h (2 Bft)
23.03.2016 20:10 1,7 C 1,5 C 77 % 1008,9 hPa 0,0 mm 4,2 km/h (1 Bft) W-SW 247 0 min -1,9 C 12,2 km/h (2 Bft)
23.03.2016 20:15 1,7 C 1,3 C 77 % 1008,9 hPa 0,0 mm 6,6 km/h (2 Bft) S 180 0 min -1,9 C 3,0 km/h (1 Bft)
23.03.2016 20:20 1,7 C 1,4 C 77 % 1008,9 hPa 0,0 mm 5,4 km/h (1 Bft) SW 225 0 min -1,9 C 6,3 km/h (2 Bft)
23.03.2016 20:25 1,6 C 1,4 C 78 % 1008,9 hPa 0,0 mm 2,7 km/h (1 Bft) O-SO 112 0 min -1,8 C 0,0 km/h (0 Bft)
23.03.2016 20:30 1,6 C 1,4 C 78 % 1009,1 hPa 0,0 mm 1,8 km/h (1 Bft) SO 135 0 min -1,8 C 0,0 km/h (0 Bft)
23.03.2016 20:35 1,5 C 1,3 C 79 % 1009,1 hPa 0,0 mm 0,0 km/h (0 Bft) NO 45 0 min -1,7 C 0,0 km/h (0 Bft)
23.03.2016 20:40 1,5 C 1,3 C 79 % 1009,1 hPa 0,0 mm 0,6 km/h (0 Bft) S 180 0 min -1,7 C 0,0 km/h (0 Bft)
23.03.2016 20:45 1,5 C 1,3 C 79 % 1009,1 hPa 0,0 mm 1,8 km/h (1 Bft) O 90 0 min -1,7 C 3,9 km/h (1 Bft)
23.03.2016 20:50 1,5 C 1,3 C 79 % 1009,2 hPa 0,0 mm 2,4 km/h (1 Bft) SW 225 0 min -1,7 C 11,9 km/h (2 Bft)
23.03.2016 20:55 1,6 C 1,4 C 79 % 1009,2 hPa 0,0 mm 3,0 km/h (1 Bft) S-SO 157 0 min -1,6 C 0,0 km/h (0 Bft)
23.03.2016 21:00 1,6 C 1,4 C 79 % 1009,2 hPa 0,0 mm 3,0 km/h (1 Bft) W-SW 247 0 min -1,6 C 5,4 km/h (1 Bft)
23.03.2016 21:05 1,7 C 1,3 C 79 % 1009,2 hPa 0,0 mm 6,6 km/h (2 Bft) SW 225 0 min -1,5 C 13,7 km/h (3 Bft)
23.03.2016 21:10 1,7 C 1,0 C 79 % 1009,3 hPa 0,0 mm 10,1 km/h (2 Bft) S 180 0 min -1,5 C 5,4 km/h (1 Bft)
23.03.2016 21:15 1,6 C 1,2 C 79 % 1009,3 hPa 0,0 mm 6,9 km/h (2 Bft) S 180 0 min -1,6 C 9,2 km/h (2 Bft)
23.03.2016 21:20 1,6 C 1,4 C 79 % 1009,3 hPa 0,0 mm 5,1 km/h (1 Bft) W-SW 247 0 min -1,6 C 14,6 km/h (3 Bft)
23.03.2016 21:25 1,7 C 1,4 C 79 % 1009,3 hPa 0,0 mm 5,4 km/h (1 Bft) S 180 0 min -1,5 C 3,0 km/h (1 Bft)
23.03.2016 21:30 1,7 C 1,5 C 79 % 1009,3 hPa 0,0 mm 4,5 km/h (1 Bft) S-SW 202 0 min -1,5 C 5,1 km/h (1 Bft)
23.03.2016 21:35 1,7 C 1,5 C 79 % 1009,3 hPa 0,0 mm 4,5 km/h (1 Bft) W-SW 247 0 min -1,5 C 9,8 km/h (2 Bft)
23.03.2016 21:40 1,7 C 1,4 C 79 % 1009,3 hPa 0,0 mm 5,7 km/h (1 Bft) S 180 0 min -1,5 C 7,5 km/h (2 Bft)
23.03.2016 21:45 1,7 C 1,2 C 79 % 1009,3 hPa 0,0 mm 7,5 km/h (2 Bft) S 180 0 min -1,5 C 4,5 km/h (1 Bft)
23.03.2016 21:50 1,7 C 1,4 C 79 % 1009,6 hPa 0,0 mm 6,3 km/h (2 Bft) SO 135 0 min -1,5 C 4,5 km/h (1 Bft)
23.03.2016 21:52 1,7 C 1,4 C 79 % 1009,6 hPa 0,0 mm 6,3 km/h (2 Bft) SO 135 0 min -1,5 C 4,5 km/h (1 Bft)
23.03.2016 21:55 1,7 C 1,5 C 79 % 1009,6 hPa 0,0 mm 4,8 km/h (1 Bft) W-SW 247 0 min -1,5 C 10,7 km/h (2 Bft)
23.03.2016 22:00 1,8 C 1,4 C 79 % 1009,6 hPa 0,0 mm 6,0 km/h (2 Bft) SW 225 0 min -1,4 C 16,4 km/h (3 Bft)
23.03.2016 22:05 1,8 C 1,2 C 79 % 1009,6 hPa 0,0 mm 8,9 km/h (2 Bft) S 180 0 min -1,4 C 8,3 km/h (2 Bft)
23.03.2016 22:10 1,9 C 1,2 C 79 % 1009,6 hPa 0,0 mm 9,5 km/h (2 Bft) SW 225 0 min -1,3 C 7,2 km/h (2 Bft)
23.03.2016 22:15 1,9 C 1,3 C 79 % 1009,6 hPa 0,0 mm 9,2 km/h (2 Bft) S 180 0 min -1,3 C 5,4 km/h (1 Bft)
23.03.2016 22:20 1,9 C 1,3 C 79 % 1009,6 hPa 0,0 mm 8,3 km/h (2 Bft) S 180 0 min -1,3 C 8,0 km/h (2 Bft)
23.03.2016 22:25 1,9 C 1,5 C 79 % 1009,6 hPa 0,0 mm 6,9 km/h (2 Bft) S 180 0 min -1,3 C 4,8 km/h (1 Bft)
23.03.2016 22:30 1,8 C 1,5 C 79 % 1009,7 hPa 0,0 mm 6,0 km/h (2 Bft) SW 225 0 min -1,4 C 6,9 km/h (2 Bft)
23.03.2016 22:35 1,8 C 1,6 C 79 % 1009,7 hPa 0,0 mm 4,5 km/h (1 Bft) W 270 0 min -1,4 C 0,0 km/h (0 Bft)
23.03.2016 22:40 1,8 C 1,6 C 79 % 1009,7 hPa 0,0 mm 4,2 km/h (1 Bft) W-SW 247 0 min -1,4 C 6,0 km/h (2 Bft)
23.03.2016 22:45 1,8 C 1,6 C 79 % 1009,7 hPa 0,0 mm 5,1 km/h (1 Bft) NW 315 0 min -1,4 C 0,0 km/h (0 Bft)
23.03.2016 22:50 1,8 C 1,5 C 79 % 1009,7 hPa 0,0 mm 6,0 km/h (2 Bft) S-SW 202 0 min -1,4 C 10,1 km/h (2 Bft)
23.03.2016 22:55 1,8 C 1,5 C 79 % 1009,7 hPa 0,0 mm 6,0 km/h (2 Bft) SW 225 0 min -1,4 C 7,7 km/h (2 Bft)
23.03.2016 23:00 1,8 C 1,4 C 79 % 1009,7 hPa 0,0 mm 6,6 km/h (2 Bft) SW 225 0 min -1,4 C 5,4 km/h (1 Bft)
23.03.2016 23:05 1,8 C 1,4 C 79 % 1009,7 hPa 0,0 mm 6,3 km/h (2 Bft) W 270 0 min -1,4 C 3,0 km/h (1 Bft)
23.03.2016 23:10 1,8 C 1,5 C 79 % 1009,7 hPa 0,0 mm 6,0 km/h (2 Bft) W 270 0 min -1,4 C 7,5 km/h (2 Bft)
23.03.2016 23:15 1,8 C 1,6 C 79 % 1009,7 hPa 0,0 mm 5,1 km/h (1 Bft) W-SW 247 0 min -1,4 C 11,0 km/h (2 Bft)
23.03.2016 23:20 1,9 C 1,4 C 79 % 1009,7 hPa 0,0 mm 6,9 km/h (2 Bft) NW 315 0 min -1,3 C 12,2 km/h (2 Bft)
23.03.2016 23:25 1,9 C 1,3 C 79 % 1009,7 hPa 0,0 mm 8,3 km/h (2 Bft) W-SW 247 0 min -1,3 C 13,1 km/h (3 Bft)
23.03.2016 23:30 1,9 C 1,4 C 79 % 1009,8 hPa 0,0 mm 7,5 km/h (2 Bft) W-NW 292 0 min -1,3 C 8,3 km/h (2 Bft)
23.03.2016 23:35 1,9 C 1,5 C 79 % 1009,8 hPa 0,0 mm 7,2 km/h (2 Bft) W 270 0 min -1,3 C 3,3 km/h (1 Bft)
23.03.2016 23:40 1,8 C 1,5 C 79 % 1009,8 hPa 0,0 mm 6,0 km/h (2 Bft) NW 315 0 min -1,4 C 3,0 km/h (1 Bft)
23.03.2016 23:45 1,7 C 1,5 C 79 % 1009,8 hPa 0,0 mm 3,3 km/h (1 Bft) W-NW 292 0 min -1,5 C 3,3 km/h (1 Bft)
23.03.2016 23:50 1,6 C 1,5 C 79 % 1009,7 hPa 0,0 mm 3,0 km/h (1 Bft) SW 225 0 min -1,6 C 6,6 km/h (2 Bft)
23.03.2016 23:55 1,6 C 1,4 C 79 % 1009,7 hPa 0,0 mm 3,9 km/h (1 Bft) W 270 0 min -1,6 C 9,5 km/h (2 Bft)
_ Min-Zeit 06:35 06:35 17:25 06:05 - 20:35 - - - 02:45 22:45
Minimum _ 0,1 C -0,2 C 70 % 1005,9 hPa - 0,0 km/h (0 Bft) - - - -3,3 C 0,0 km/h (0 Bft)
_ Max-Zeit 14:10 14:15 07:15 23:45 16:40 18:55 - - 14:25 14:10 19:15
Maximum _ 4,7 C 8,9 C 82 % 1009,8 hPa 0,7 mm 11,6 km/h
S-SW (2 Bft)
- - 5 min 0,8 C 20,0 km/h
S-SW (4 Bft)
Durchschnitt _ 1,7 C 1,9 C 77 % 1007,5 hPa #1,4 mm 2,9 km/h (1 Bft) W-SW - #45 min. -1,8 C 3,7 km/h (1 Bft)